Flag for Brazil Weather past 2 weeks in Campo Grande, Mato Grosso Do Sul, Brazil

Now
70 °F

Partly sunny.


Feels Like: 70 °F
Forecast: 61 / 75 °F
Wind: 10 mph from East

Location: Campo Grande Aeroporto

Current Time: Jul 28, 2014 at 12:44:14 PM

Latest Report: Jul 28, 2014 at 12:00 PM


Visibility: N/A

Pressure: 30.24 "Hg

Humidity: 78%

Dew point: 63 °F

Location of Campo GrandeLocation

Historic Weather in Campo Grande — Graph

°F

Campo Grande temperature yesterday

Maximum temperature yesterday: 70 °F (at 1:00 PM)
Minimum temperature yesterday: 55 °F (at 12:00 AM)
Average temperature yesterday: 61 °F

Past Weeks' High & Low Weather Summary

 TemperatureHumidityPressure
High86 °F (Jul 17, 1:00 PM)100% (Jul 18, 2:00 AM)30.27 "Hg (Jul 18, 2:00 AM)
Low37 °F (Jul 26, 12:00 PM)30% (Jul 21, 4:00 PM)29.89 "Hg (Jul 23, 5:00 PM)
Average65 °F69%30.11 "Hg
* Reported Jul 13 11:00 AM — Jul 28 11:00 AM, Campo Grande, Weather by CustomWeather, © 2014

Note: Actual official high and low records may vary slightly from our data, if they occured in-between our weather recording intervals... More about our weather records

Advertising

Campo Grande weather history for previous 24 hours

 ConditionsComfort  
Time TempWeatherWind HumidityBarometerVisibility
11:00 AM
Jul 28
68 °FPartly sunny.12 mph83%30.24 "HgN/A
10:00 AM66 °FPartly sunny.2 mph83%30.27 "HgN/A
9:00 AM64 °FPartly sunny.15 mph88%30.24 "HgN/A
8:00 AM63 °FLight rain. Broken clouds.12 mph88%30.24 "HgN/A
7:00 AM61 °FDrizzle. Broken clouds.3 mph100%30.24 "HgN/A
6:00 AM61 °FDrizzle. Partly sunny.6 mph100%30.21 "HgN/A
5:00 AM61 °FPassing clouds.1 mph100%30.21 "HgN/A
4:00 AM63 °FThundershowers. Partly cloudy.3 mph94%30.21 "HgN/A
3:00 AM63 °FThundershowers. Partly cloudy.5 mph94%N/AN/A
2:00 AMN/AThunderstorms.5 mphN/AN/A4 mi
1:00 AM61 °FThunderstorms. Partly cloudy.No wind100%N/A5 mi
12:06 AM63 °FStrong thunderstorms. Passing clouds.7 mph94%30.21 "Hg3 mi
12:00 AM45 °FThunderstorms. Passing clouds.6 mph100%30.21 "HgN/A
11:00 PM
Jul 27
63 °FThundershowers. Passing clouds.2 mph94%N/AN/A
10:00 PM63 °FPartly cloudy.3 mph94%30.21 "HgN/A
9:00 PM63 °FPassing clouds.No wind94%30.21 "HgN/A
8:00 PM63 °FPartly cloudy.No wind94%30.18 "HgN/A
7:00 PM63 °FPartly cloudy.5 mph94%30.18 "HgN/A
6:00 PM64 °FPartly cloudy.5 mph88%30.18 "HgN/A
5:00 PM66 °FPartly cloudy.5 mph83%30.15 "HgN/A
4:00 PM68 °FPartly sunny.7 mph83%30.15 "HgN/A
3:00 PM68 °FPartly sunny.5 mph83%30.12 "HgN/A
2:00 PM70 °FBroken clouds.9 mph73%30.12 "HgN/A
1:00 PM70 °FBroken clouds.7 mph73%30.12 "HgN/A
12:00 PM68 °FBroken clouds.6 mph83%30.15 "HgN/A
Weather by CustomWeather, © 2014

See weather overviewHow to use our weather pages